This is the latest recevied weather packets stored in our database for station/object W4HIX-2. If no packets are shown the sender has not sent any weather packets the latest 10 day(s).
| Time | Temp. | Humidity | Pressure | Rain* | Wind** | Luminosity | Snow |
|---|---|---|---|---|---|---|---|
| 1777725017 | 25.56° C | 90% | 1010.2 hPa | 0 mm | - | - | - |
| 1777723817 | 24.44° C | 89% | 1010 hPa | 0 mm | - | - | - |
| 1777719017 | 23.33° C | 91% | 1009.8 hPa | 0 mm | - | - | - |
| 1777718437 | 23.33° C | 91% | 1009.7 hPa | 0 mm | - | - | - |
| 1777717217 | 23.33° C | 91% | 1009.7 hPa | 0 mm | - | - | - |
| 1777714837 | 23.33° C | 92% | 1010 hPa | 0 mm | - | - | - |
| 1777714217 | 23.33° C | 92% | 1010 hPa | 0 mm | - | - | - |
| 1777711216 | 23.89° C | 92% | 1010.4 hPa | 0 mm | - | - | - |
| 1777700416 | 24.44° C | 89% | 1011.4 hPa | 0 mm | - | - | - |
| 1777698636 | 24.44° C | 89% | 1011.6 hPa | 0 mm | - | - | - |
| 1777696816 | 24.44° C | 89% | 1011.9 hPa | 0 mm | - | - | - |
| 1777695616 | 24.44° C | 89% | 1011.8 hPa | 0 mm | - | - | - |
| 1777695016 | 24.44° C | 89% | 1011.8 hPa | 0 mm | - | - | - |
| 1777691416 | 24.44° C | 87% | 1011.6 hPa | 0 mm | - | - | - |
| 1777690216 | 25° C | 86% | 1011.9 hPa | 0 mm | - | - | - |
| 1777689016 | 25° C | 86% | 1012 hPa | 0 mm | - | - | - |
| 1777686016 | 25° C | 87% | 1011.6 hPa | 0 mm | - | - | - |
| 1777684837 | 25° C | 86% | 1011.5 hPa | 0 mm | - | - | - |
| 1777682416 | 25° C | 84% | 1010.9 hPa | 0 mm | - | - | - |
| 1777681256 | 25° C | 84% | 1010.9 hPa | 0 mm | - | - | - |
| 1777680616 | 25.56° C | 84% | 1010.8 hPa | 0 mm | - | - | - |
| 1777678216 | 25.56° C | 82% | 1010.5 hPa | 0 mm | - | - | - |
| 1777677016 | 26.11° C | 81% | 1010.5 hPa | 0 mm | - | - | - |
| 1777675216 | 26.11° C | 81% | 1010.1 hPa | 0 mm | - | - | - |
| 1777674017 | 26.11° C | 82% | 1010.2 hPa | 0 mm | - | - | - |
* Rain latest hour (hover to see other rain measurements)
** Current wind speed in m/s (hover to see current wind gust speed)